[[{"header":{"parameterUnit":"m.s-1","parameterCategory":1,"la1":30.2991,"la2":30.254,"lo1":-89.0895,"lo2":-89.0444,"dy":0.0017,"dx":0.0017,"nx":28,"ny":28,"refTime":"2025-08-03T21:00:00:Z","depth":0,"parameterNumber":2,"parameterNumberName":"U-component_of_WINDS"},"data":[0,0,0,0,0,0,0,0,0,0,0,0,0,0,0,0,0,0,0,0,0,0,0,0,0,0,0,0,0,0,0,0,0,0,0,0,0,0,0,0,0,0,0,0,0,0,0,0,0,0,0,0,0,0,0,0,0,0,-1.8213,-1.8213,0,-1.8268,-1.8268,-1.8269,-1.8284,-1.8284,-1.8284,-1.8284,-1.8336,-1.8338,-1.834,0,0,0,0,0,0,0,0,0,0,0,0,0,-1.8118,-1.8119,-1.8213,-1.8213,-1.8214,-1.8267,-1.8268,-1.8269,-1.8285,-1.8284,-1.8284,-1.8284,-1.8336,-1.8338,-1.834,0,0,0,0,0,0,0,0,0,0,0,0,0,-1.8164,-1.812,-1.8212,-1.8228,-1.823,-1.8267,-1.8268,-1.8269,-1.8285,-1.8284,-1.8284,-1.8283,-1.8335,-1.8338,-1.834,-1.8364,0,0,-1.8348,-1.8349,0,0,0,0,0,0,0,0,-1.8162,-1.8168,-1.8225,-1.8227,-1.823,-1.8269,-1.8254,-1.8301,-1.8285,-1.8264,-1.8284,-1.8283,-1.8314,-1.8318,-1.8329,-1.8367,-1.8369,-1.8348,-1.835,-1.8351,-1.8351,0,0,0,0,0,0,0,-1.8158,-1.8165,-1.8234,-1.8226,-1.8229,-1.8231,-1.8238,-1.8263,-1.8291,-1.8266,-1.8267,-1.8273,-1.8315,-1.8327,-1.8331,-1.837,-1.8348,-1.835,-1.8352,-1.8353,-1.8429,-1.8429,0,0,0,0,0,0,-1.8153,-1.8163,-1.8232,-1.8236,-1.8194,-1.8234,-1.824,-1.8257,-1.829,-1.8295,-1.8274,-1.8274,-1.8323,-1.8328,-1.8333,-1.8362,-1.8351,-1.8353,-1.8354,-1.8428,-1.8429,-1.8429,0,0,0,0,0,0,-1.8151,-1.8159,-1.823,-1.82,-1.8209,-1.8236,-1.8254,-1.8258,-1.827,-1.8297,-1.8301,-1.8281,-1.8323,-1.8329,-1.8356,-1.8365,-1.8354,-1.8356,-1.8428,-1.8428,-1.8429,-1.8423,0,0,0,0,0,0,-1.8148,-1.8158,-1.8169,-1.82,-1.8211,-1.8254,-1.8254,-1.8259,-1.8274,-1.8275,-1.8305,-1.8309,-1.8323,-1.8352,-1.8359,-1.8368,-1.8358,-1.8427,-1.8428,-1.8429,-1.8422,-1.8423,-1.8424,0,0,0,0,0,-1.8145,-1.8164,-1.8169,-1.8177,-1.8224,-1.8255,-1.8261,-1.8277,-1.8275,-1.8285,-1.8302,-1.8308,-1.8363,-1.8355,-1.8362,-1.8372,-1.8426,-1.8428,-1.8429,-1.8422,-1.8423,-1.8424,0,0,0,0,0,0,-1.8132,-1.8168,-1.8174,-1.8205,-1.8227,-1.8257,-1.827,-1.8278,-1.83,-1.8299,-1.8318,-1.8325,-1.835,-1.8364,-1.8355,-1.8397,-1.8395,-1.8397,-1.8387,-1.8388,-1.8389,-1.8385,-1.836,0,0,0,0,0,-1.8133,-1.8156,-1.8186,-1.8209,-1.822,-1.8243,-1.8257,-1.8268,-1.8291,-1.83,-1.8319,-1.834,-1.8362,-1.8376,-1.8398,-1.8425,-1.8431,-1.8435,-1.8436,-1.8436,-1.8438,-1.8452,-1.8454,-1.8433,-1.8433,-1.8433,0,0,-1.8134,-1.8157,-1.817,-1.8208,-1.8226,-1.8248,-1.8251,-1.8274,-1.829,-1.8303,-1.833,-1.8345,-1.8369,-1.8396,-1.8409,-1.8409,-1.8445,-1.8438,-1.8438,-1.8439,-1.8454,-1.8456,-1.8457,-1.8434,-1.8434,-1.8434,0,0,-1.8149,-1.8169,-1.819,-1.8209,-1.8237,-1.8252,-1.8257,-1.8287,-1.8297,-1.8325,-1.8335,-1.8353,-1.8391,-1.8408,-1.8422,-1.8442,-1.8448,-1.8448,-1.8452,-1.8466,-1.8468,-1.8469,-1.8476,-1.8478,-1.845,-1.845,-1.845,0,-1.8147,-1.8181,-1.82,-1.8223,-1.8238,-1.8252,-1.8274,-1.829,-1.8323,-1.8333,-1.8332,-1.838,-1.8397,-1.8428,-1.8433,-1.8444,-1.8449,-1.8445,-1.8466,-1.8468,-1.847,-1.8476,-1.8478,-1.845,-1.845,-1.845,-1.845,0,-1.8177,-1.8201,-1.8215,-1.8248,-1.8265,-1.8286,-1.8307,-1.8322,-1.8332,-1.8346,-1.8374,-1.8396,-1.8422,-1.843,-1.8439,-1.8462,-1.846,-1.8463,-1.8461,-1.8471,-1.8477,-1.848,-1.845,-1.845,-1.845,-1.845,0,0,-1.8185,-1.8228,-1.8232,-1.8247,-1.8279,-1.8297,-1.8318,-1.8345,-1.8357,-1.8379,-1.8397,-1.8429,-1.8431,-1.8446,-1.8457,-1.847,-1.8483,-1.847,-1.8471,-1.8471,-1.8509,-1.8506,-1.8509,-1.8488,-1.8488,-1.8489,-1.8506,0,-1.8202,-1.8243,-1.826,-1.8293,-1.8314,-1.8328,-1.8347,-1.8367,-1.8382,-1.8401,-1.8417,-1.8438,-1.844,-1.845,-1.8462,-1.8479,-1.8491,-1.8478,-1.8503,-1.8504,-1.8496,-1.8512,-1.851,-1.8525,-1.8509,-1.8509,-1.851,0,-1.8228,-1.8251,-1.8286,-1.8315,-1.8324,-1.8341,-1.8366,-1.8385,-1.8409,-1.8418,-1.8435,-1.8446,-1.8468,-1.8465,-1.8496,-1.8487,-1.8498,-1.8508,-1.8509,-1.8511,-1.8507,-1.8514,-1.8531,-1.8533,-1.8514,-1.8513,-1.8513,0,-1.8229,-1.8269,-1.8295,-1.8307,-1.8341,-1.8352,-1.8367,-1.839,-1.8405,-1.8427,-1.8436,-1.846,-1.8472,-1.849,-1.8506,-1.8503,-1.8535,-1.8533,-1.8542,-1.8542,-1.8548,-1.8547,-1.8566,-1.8557,-1.8557,-1.8557,-1.8557,0,-1.8246,-1.8266,-1.8295,-1.8311,-1.8334,-1.8353,-1.8375,-1.839,-1.8411,-1.8429,-1.8442,-1.8458,-1.8479,-1.8498,-1.8511,-1.8534,-1.8539,-1.8547,-1.855,-1.8545,-1.8544,-1.8553,-1.8552,-1.8557,-1.8557,-1.8557,-1.8557,0,-1.825,-1.8271,-1.83,-1.833,-1.8338,-1.8353,-1.8379,-1.8394,-1.8409,-1.8432,-1.8438,-1.8461,-1.8484,-1.8503,-1.8532,-1.8541,-1.8564,-1.8568,-1.8557,-1.8558,-1.8566,-1.8565,-1.859,-1.8594,-1.8582,-1.8583,-1.8583,0,-1.826,-1.8276,-1.8308,-1.8322,-1.8336,-1.8358,-1.8373,-1.8392,-1.8407,-1.8435,-1.8447,-1.8471,-1.8491,-1.8527,-1.8546,-1.8568,-1.8572,-1.8579,-1.8575,-1.857,-1.8571,-1.857,-1.8571,-1.8579,-1.8579,-1.8579,-1.8579,0,-1.8274,-1.8283,-1.8305,-1.833,-1.8348,-1.8369,-1.8389,-1.8399,-1.8422,-1.8438,-1.8462,-1.8478,-1.8509,-1.8532,-1.8557,-1.857,-1.8578,-1.8581,-1.8584,-1.8579,-1.8571,-1.8575,-1.8557,-1.858,-1.858,-1.858,-1.858,-1.858,-1.828,-1.8295,-1.832,-1.8344,-1.8361,-1.838,-1.8396,-1.8414,-1.8434,-1.8461,-1.8471,-1.8496,-1.8518,-1.8552,-1.8566,-1.8585,-1.8585,-1.859,-1.8591,-1.8592,-1.8591,-1.8569,-1.8589,-1.8589,-1.8589,-1.8589,-1.8589,0,-1.8294,-1.8311,-1.8333,-1.8362,-1.838,-1.8387,-1.841,-1.8425,-1.8447,-1.8467,-1.8487,-1.8514,-1.8537,-1.8558,-1.8581,-1.8592,-1.8596,-1.8598,-1.8597,-1.86,-1.8589,-1.8584,-1.8594,-1.8594,-1.8594,-1.8594,-1.8594,-1.8594,-1.8303,-1.8329,-1.8341,-1.8374,-1.8391,-1.8415,-1.8428,-1.8445,-1.8462,-1.8492,-1.8511,-1.8525,-1.8546,-1.8571,-1.8592,-1.8597,-1.8605,-1.8605,-1.8611,-1.8601,-1.86,-1.86,-1.8595,-1.8607,-1.8607,-1.862,-1.862,-1.862]},{"header":{"parameterUnit":"m.s-1","parameterCategory":1,"la1":30.2991,"la2":30.254,"lo1":-89.0895,"lo2":-89.0444,"dy":0.0017,"dx":0.0017,"nx":28,"ny":28,"refTime":"2025-08-03T21:00:00:Z","depth":0,"parameterNumber":3,"parameterNumberName":"V-component_of_WINDS"},"data":[0,0,0,0,0,0,0,0,0,0,0,0,0,0,0,0,0,0,0,0,0,0,0,0,0,0,0,0,0,0,0,0,0,0,0,0,0,0,0,0,0,0,0,0,0,0,0,0,0,0,0,0,0,0,0,0,0,0,1.1403,1.1405,0,1.1515,1.1516,1.1518,1.148,1.1478,1.1475,1.1473,1.1588,1.1593,1.1599,0,0,0,0,0,0,0,0,0,0,0,0,0,1.1156,1.1161,1.1403,1.1405,1.1406,1.1515,1.1517,1.1518,1.148,1.1478,1.1475,1.1472,1.1586,1.1593,1.1599,0,0,0,0,0,0,0,0,0,0,0,0,0,1.1265,1.1162,1.1403,1.14,1.1401,1.1515,1.1517,1.1518,1.1481,1.1477,1.1474,1.147,1.1584,1.1592,1.16,1.1723,0,0,1.1624,1.1628,0,0,0,0,0,0,0,0,1.1259,1.1274,1.1399,1.1401,1.1402,1.148,1.1472,1.1587,1.1482,1.1451,1.1473,1.1469,1.1555,1.1565,1.1594,1.1728,1.1733,1.1625,1.163,1.1633,1.1636,0,0,0,0,0,0,0,1.1252,1.1269,1.1448,1.1401,1.1403,1.1393,1.1405,1.1493,1.1522,1.1453,1.1451,1.1465,1.1555,1.1587,1.1597,1.1735,1.1625,1.1632,1.1637,1.164,1.1974,1.1977,0,0,0,0,0,0,1.1243,1.1263,1.1444,1.1451,1.132,1.1401,1.1414,1.1459,1.1521,1.1527,1.1468,1.1462,1.1575,1.1587,1.1601,1.1748,1.1633,1.1641,1.1645,1.197,1.1974,1.1979,0,0,0,0,0,0,1.1238,1.126,1.1439,1.1357,1.1379,1.1409,1.146,1.1463,1.1494,1.1532,1.1537,1.1495,1.1572,1.1589,1.1692,1.1751,1.1644,1.1652,1.1965,1.1971,1.1977,1.2044,0,0,0,0,0,0,1.1231,1.1258,1.1306,1.1358,1.1383,1.153,1.1463,1.1468,1.1508,1.1502,1.1559,1.1564,1.1571,1.1681,1.17,1.1761,1.1658,1.196,1.1968,1.1975,1.2037,1.2052,1.2064,0,0,0,0,0,1.1223,1.1321,1.1308,1.133,1.1443,1.1533,1.1548,1.1553,1.1513,1.1561,1.1584,1.1563,1.1742,1.1691,1.1713,1.1777,1.1956,1.1965,1.1974,1.203,1.2049,1.2064,0,0,0,0,0,0,1.1275,1.1327,1.1314,1.1432,1.1478,1.1527,1.1587,1.1572,1.1631,1.1624,1.1628,1.1641,1.1746,1.1772,1.1715,1.1898,1.1843,1.1857,1.1878,1.1896,1.1909,1.1901,1.1665,0,0,0,0,0,1.13,1.1369,1.1411,1.1511,1.1535,1.1557,1.1597,1.1596,1.1645,1.1664,1.1696,1.1743,1.181,1.1854,1.1918,1.204,1.2051,1.2094,1.2108,1.2119,1.2131,1.2197,1.2216,1.2009,1.2009,1.2008,0,0,1.1353,1.139,1.1434,1.1522,1.1558,1.1629,1.1574,1.1652,1.1704,1.1676,1.1775,1.18,1.1853,1.1966,1.2017,1.199,1.2191,1.2131,1.2139,1.2146,1.2208,1.2228,1.2245,1.2015,1.2014,1.2013,0,0,1.1486,1.1521,1.1608,1.1644,1.1699,1.1713,1.1734,1.1784,1.1799,1.1899,1.1878,1.1941,1.2056,1.2095,1.2129,1.2275,1.2257,1.2295,1.2368,1.2432,1.2448,1.2463,1.2514,1.2532,1.2307,1.2307,1.2307,0,1.1545,1.1651,1.1654,1.1733,1.1773,1.1749,1.1837,1.1872,1.1945,1.1973,1.1941,1.2085,1.2119,1.224,1.2275,1.2304,1.2328,1.2289,1.2445,1.246,1.2474,1.2523,1.2542,1.2312,1.2311,1.2311,1.231,0,1.1721,1.1795,1.1858,1.1929,1.1975,1.2058,1.2073,1.2119,1.2114,1.2131,1.2232,1.2272,1.2343,1.2371,1.2368,1.2492,1.2473,1.2444,1.2388,1.2498,1.2544,1.2563,1.2318,1.2316,1.2315,1.2314,0,0,1.1892,1.1961,1.1984,1.2015,1.2073,1.213,1.2212,1.228,1.232,1.237,1.2438,1.2535,1.2508,1.2548,1.2548,1.2604,1.2716,1.2567,1.2569,1.2593,1.2853,1.2875,1.2897,1.2703,1.2707,1.271,1.2849,0,1.2029,1.2172,1.2176,1.2307,1.2375,1.2353,1.2423,1.2466,1.2484,1.2543,1.2562,1.2631,1.259,1.2614,1.2668,1.2691,1.2768,1.268,1.2767,1.277,1.2754,1.2921,1.2945,1.3075,1.2867,1.287,1.2872,0,1.2209,1.2264,1.2402,1.2449,1.2477,1.2541,1.2603,1.2661,1.2709,1.2717,1.276,1.2752,1.2834,1.2775,1.2888,1.2829,1.2864,1.288,1.2885,1.2894,1.2828,1.2934,1.3116,1.3135,1.2901,1.2898,1.2896,0,1.2319,1.2428,1.2524,1.2552,1.2609,1.2654,1.268,1.2724,1.2764,1.2819,1.2845,1.2908,1.2943,1.2992,1.3001,1.2958,1.3114,1.3056,1.3124,1.3124,1.3159,1.3156,1.3348,1.3181,1.3181,1.318,1.318,0,1.2473,1.2558,1.2574,1.2634,1.2728,1.2731,1.2824,1.2846,1.2885,1.2948,1.2932,1.2991,1.2999,1.306,1.3067,1.3159,1.3175,1.3184,1.3185,1.3186,1.3185,1.3209,1.3201,1.3185,1.3184,1.3183,1.3182,0,1.2612,1.2627,1.273,1.2775,1.2789,1.2856,1.2894,1.295,1.2965,1.3045,1.3063,1.3087,1.3158,1.3171,1.3255,1.326,1.337,1.3361,1.3354,1.3353,1.3419,1.3413,1.3634,1.3663,1.3477,1.3478,1.348,0,1.271,1.2774,1.2826,1.2866,1.2894,1.296,1.3001,1.3006,1.3049,1.3108,1.3157,1.3225,1.3281,1.3395,1.3419,1.3483,1.3476,1.3549,1.3486,1.3484,1.3477,1.3473,1.3479,1.3562,1.3564,1.3565,1.3567,0,1.288,1.2884,1.2944,1.3006,1.3055,1.3104,1.3151,1.3185,1.3196,1.3245,1.3317,1.336,1.3445,1.3513,1.3576,1.3602,1.3587,1.3586,1.3605,1.3607,1.3599,1.3604,1.3387,1.3581,1.358,1.3579,1.3578,1.3577,1.3002,1.3058,1.3103,1.3169,1.3204,1.3248,1.3303,1.3324,1.3384,1.3453,1.3452,1.3531,1.3575,1.3658,1.3688,1.3749,1.3725,1.3753,1.376,1.3767,1.3773,1.3589,1.376,1.376,1.3759,1.3759,1.3759,0,1.3172,1.3199,1.326,1.3325,1.3378,1.3357,1.3407,1.3452,1.3522,1.3564,1.3618,1.37,1.3766,1.3795,1.386,1.3903,1.3897,1.392,1.3917,1.3923,1.379,1.3767,1.3923,1.3923,1.3923,1.3923,1.3923,1.3923,1.3266,1.336,1.3368,1.3479,1.3505,1.3582,1.3612,1.3651,1.3685,1.3777,1.3832,1.385,1.3887,1.3953,1.4013,1.4019,1.4044,1.407,1.4073,1.3949,1.3932,1.3916,1.3895,1.4075,1.4075,1.4201,1.4202,1.4203]}]]